Regional Weather Roundup
Issued by NWS

Home | Current Version | Previous Version | Graphics & Text | Print | Product List | Glossary On
Versions: 1 2 3 4 5 6 7 8 9 10 11 12 13 14 15 16 17 18 19 20 21 22 23 24 25 26 27 28 29 30 31 32 33 34 35 36 37 38 39 40 41 42 43 44 45 46 47 48 49 50
000
ASUS43 KLOT 031921
RWRIL

ILLINOIS REGIONAL WEATHER ROUNDUP
NATIONAL WEATHER SERVICE CHICAGO/ROMEOVILLE IL
200 PM CDT SUN MAY 03 2015

NOTE: "FAIR" INDICATES FEW OR NO CLOUDS BELOW 12,000 FEET WITH NO
SIGNIFICANT WEATHER AND/OR OBSTRUCTIONS TO VISIBILITY.

* THESE STATIONS ARE NOT UNDER NWS QUALITY CONTROL. THEY ALSO MAY NOT
  REPORT WEATHER SUCH AS PRECIPITATION OR FOG.

ILZ001-002-007-009-015-016-024-032000-
NORTHWEST ILLINOIS

CITY           SKY/WX    TMP DP  RH WIND       PRES   REMARKS
MOLINE         CLOUDY    76  58  53 NW8       29.88S
STERLING*      CLOUDY    73  57  56 SW5       29.90F
SAVANNA*       TSTM      61  58  91 NW13      29.96R
$$

ILZ003-004-008-010-011-017-018-032000-
NORTH CENTRAL ILLINOIS

CITY           SKY/WX    TMP DP  RH WIND       PRES   REMARKS
ROCKFORD       CLOUDY    66  57  72 W8        29.96R
FREEPORT*      CLOUDY    61  58  89 CALM      29.94F
ROCHELLE*      CLOUDY    70  57  63 SE8       29.93F
DE KALB*       CLOUDY    65  56  71 SE6       29.94F
PERU*          PTSUNNY   81  47  30 SW22G30   29.92S HX  80
$$

ILZ005-006-012>014-019>023-032000-
NORTHEAST ILLINOIS

CITY           SKY/WX    TMP DP  RH WIND       PRES   REMARKS
CHICAGO-OHARE  LGT RAIN  72  49  44 SW8       29.95R
CHICAGO-MIDWAY PTSUNNY   78  46  32 SW16      29.95F
AURORA         CLOUDY    75  50  41 SE7       29.94F
LANSING*       MOSUNNY   77  39  25 W16       29.96F
JOLIET*        PTSUNNY   79  49  35 S9        29.94F
WAUKEGAN       MOSUNNY   74  51  44 SW15G24   29.92F
DUPAGE AIRPORT CLOUDY    68  55  63 CALM      29.94F
KANKAKEE*      MOSUNNY   80  49  33 SW17G26   29.96F HX  80
WHEELING       MOSUNNY   74  48  39 SW10      29.95S
MORRIS*        CLOUDY    80  47  30 S15G21    29.92F
ROMEOVILLE*    CLOUDY    76  43  30 SW5       29.94F
NORTHERLY ISL    N/A     77  41  27 S7          N/A
$$

LMZ740>746-032000-
SOUTHERN LAKE MICHIGAN

STATION/POSITION SKY/WX   TEMP    WIND        PRES    VSBY  WAVE
                          AIR SEA DIR/SP/G                  HT/PER
                          (F)     (DEG/KT/KT) (MB)    (MI)  (FT/S)
HARRISON CRIB              74     200/ 15/ 24   N/A
BURNHAM HARBOR             78     200/  9/ 25   N/A
CALUMET HARBOR             78     190/ 13/ 19   N/A
BURNS HARBOR               75     200/ 15/ 21 1015.6F
MICHIGAN CITY              76     180/ 16/ 21   N/A
MICHIGAN CITY 6N           65 51  220/  8/ 10   N/A           1/ 2
ST. JOSEPH                 56 49  270/  6/  6   N/A           1
$$

ILZ025>027-034>036-040-047-049-050-058-095>099-032000-
WEST-CENTRAL ILLINOIS

CITY           SKY/WX    TMP DP  RH WIND       PRES   REMARKS
QUINCY         MOSUNNY   81  55  40 SW17      29.91F HX  81
GALESBURG*     CLOUDY    79  57  46 S21G26    29.90S HX  80
MACOMB*        PTSUNNY   83  53  34 S23       29.92F HX  82
JACKSONVILLE*  MOSUNNY   85  52  32 S16G23    29.94F HX  83
PITTSFIELD*    MOSUNNY   83  52  34 S16G23    29.94F HX  81
$$

ILZ028>032-037-038-041>044-048-051>054-059>061-032000-
CENTRAL ILLINOIS

CITY           SKY/WX    TMP DP  RH WIND       PRES   REMARKS
PONTIAC        MOSUNNY   83  49  30 SW23      29.95S HX  82
BLOOMINGTON    CLOUDY    80  50  35 S21G28    29.96F
DECATUR        MOSUNNY   81  48  31 S17G26    29.98F HX  80
PEORIA         PTSUNNY   85  50  29 S18G29    29.91S HX  83
LACON*         PTSUNNY   81  52  35 S13G30    29.90F HX  80
LINCOLN*       PTSUNNY   84  48  28 S8G20     29.92F HX  82
SPRINGFIELD    PTSUNNY   83  50  31 S17G28    29.96S HX  81
TAYLORVILLE    MOSUNNY   81  46  30 S20G25    29.97F HX  80
$$

ILZ033-039-045-046-055>057-062-063-032000-
EAST-CENTRAL ILLINOIS

CITY           SKY/WX    TMP DP  RH WIND       PRES   REMARKS
CHAMPAIGN      SUNNY     83  40  21 S21G28    29.99F HX  81
DANVILLE*      MOSUNNY   81  45  27 S20G25    29.98F
RANTOUL*       SUNNY     82  42  24 S14G22    29.98F HX  80
MATTOON        SUNNY     77  44  30 S15G22    30.01F
PARIS*         SUNNY     80  47  31 SW17G23   30.03F
$$

ILZ079-100>102-032000-
SOUTHWEST ILLINOIS

CITY           SKY/WX    TMP DP  RH WIND       PRES   REMARKS
ALTON          MOSUNNY   81  39  22 S14G23    29.98F
BELLEVILLE     SUNNY     81  51  34 VRB7      29.98F HX  80
CAHOKIA*       SUNNY     82  50  32 S9G20     29.98F HX  81
SPARTA*        FAIR      77  51  40 SW10G24   30.03F
$$

ILZ064>066-069>071-074>076-080>082-084>086-088>090-092>094-032000-
SOUTH-CENTRAL ILLINOIS

CITY           SKY/WX    TMP DP  RH WIND       PRES   REMARKS
CARBONDALE     SUNNY     78  48  34 S16       30.04F
CAIRO*         MOSUNNY   79  46  31 S8        30.07S
EFFINGHAM*     SUNNY     79  37  22 S8G18     30.03F
MT. VERNON     SUNNY     79  48  34 SW15      30.05S
CENTRALIA*     SUNNY     81  46  28 S15G21    30.03S HX  80
SALEM*         SUNNY     82  41  23 S16       30.03S HX  80
METROPOLIS*    SUNNY     78  47  33 S10G16    30.07F
$$

ILZ067-068-072-073-078-083-087-091-032000-
SOUTHEAST ILLINOIS

CITY           SKY/WX    TMP DP  RH WIND       PRES   REMARKS
LAWRENCEVILLE  SUNNY     79  47  32 S13       30.05F
FLORA*         SUNNY     79  44  28 SW16      30.04S
FAIRFIELD*     SUNNY     80  44  28 S10G18    30.04S
HARRISBURG*    SUNNY     78  46  31 SW9G17    30.07F
ROBINSON*      SUNNY     80  43  27 S14G21    30.05F
CARMI*         SUNNY     80  40  24 S15       30.05F
$$

ABBREVIATIONS USED IN REMARKS
   TC - TEMPERATURE IN CELSIUS
  WCI - WIND CHILL INDEX
   HX - HEAT INDEX
  VSB - VISIBILITY
$$



USA.gov is the U.S. government's official web portal to all federal, state and local government web resources and services.